Change the Weather History Date:

Thursday, December 5, 2013

  Actual Average Record
Temperature  
Mean Temperature 48 °F -  
Max Temperature 51 °F 32 °F 64 °F (1998)
Min Temperature 44 °F 23 °F -2 °F (2012)
Degree Days  
Heating Degree Days 18    
Moisture  
Dew Point 39 °F    
Average Humidity 70    
Maximum Humidity 76    
Minimum Humidity 56    
Precipitation  
Precipitation 0.00 in - - ()
Sea Level Pressure  
Sea Level Pressure 30.06 in    
Wind  
Wind Speed 23 mph (SE)    
Max Wind Speed 31 mph    
Max Gust Speed 37 mph    
Visibility 10 miles    
Events      
Averages and records for this station are not official NWS values.
T = Trace of Precipitation, MM = Missing Value Source: NWS Daily Summary

Daily Weather History Graph

Daily Weather History Graph

Search for Another Location

Airport or City:

Trip Planner

Search our weather history database for the weather conditions in past years. The results will help you decide how hot, cold, wet, or windy it might be!

Date:

Astronomy

Dec. 05, 2013 Rise Set
Actual Time 9:54 AM AKST 4:55 PM AKST
Civil Twilight 9:06 AM AKST 5:43 PM AKST
Nautical Twilight 8:16 AM AKST 6:33 PM AKST
Astronomical Twilight 7:30 AM AKST 7:20 PM AKST
Moon 12:03 PM AKST (12/5) 8:54 PM AKST (12/5)
Length of Visible Light 8h 37m
Length of Day
7h 01m
Waxing Crescent, 12% of the Moon is Illuminated
Dec 5
Waxing Crescent
Dec 9
First Quarter
Dec 17
Full
Dec 25
Last Quarter
Jan 1
New

Hourly Weather History & Observations

Time (AKST) Temp. Windchill Dew Point Humidity Pressure Visibility Wind Dir Wind Speed Gust Speed Precip Events Conditions
12:16 AM 48.2 °F - 39.2 °F 71% 29.99 in 10.0 mi SE 25.3 mph 31.1 mph N/A   Clear
12:36 AM 46.4 °F 37.9 °F 39.2 °F 76% 29.99 in 10.0 mi SSE 25.3 mph 32.2 mph N/A   Clear
12:56 AM 48.2 °F - 39.2 °F 71% 29.99 in 10.0 mi SE 28.8 mph 35.7 mph N/A   Clear
1:16 AM 46.4 °F 37.7 °F 37.4 °F 71% 30.00 in 10.0 mi SE 26.5 mph 34.5 mph N/A   Clear
1:36 AM 48.2 °F - 37.4 °F 66% 29.99 in 10.0 mi SE 28.8 mph 32.2 mph N/A   Clear
1:56 AM 48.2 °F - 37.4 °F 66% 29.99 in 10.0 mi SE 29.9 mph 36.8 mph N/A   Clear
2:16 AM 46.4 °F 37.5 °F 37.4 °F 71% 30.00 in 10.0 mi SE 27.6 mph 34.5 mph N/A   Clear
2:36 AM 48.2 °F - 37.4 °F 66% 30.00 in 10.0 mi SE 27.6 mph 34.5 mph N/A   Clear
2:56 AM 46.4 °F 37.9 °F 37.4 °F 71% 30.01 in 10.0 mi SE 25.3 mph 32.2 mph N/A   Clear
3:16 AM - - - N/A% 30.00 in 10.0 mi SE 25.3 mph 33.4 mph N/A   Clear
3:36 AM 46.4 °F 38.5 °F 37.4 °F 71% 30.01 in 10.0 mi SE 21.9 mph 27.6 mph N/A   Clear
3:56 AM 48.2 °F - 39.2 °F 71% 30.00 in 10.0 mi SE 27.6 mph 36.8 mph N/A   Clear
4:16 AM - - - N/A% 30.00 in 10.0 mi SE 26.5 mph 34.5 mph N/A   Clear
4:36 AM 46.4 °F 38.1 °F 39.2 °F 76% 30.03 in 10.0 mi SE 24.2 mph 27.6 mph N/A   Clear
4:56 AM 46.4 °F 39.2 °F 37.4 °F 71% 30.04 in 10.0 mi SE 18.4 mph 25.3 mph N/A   Clear
5:16 AM 46.4 °F 37.9 °F 37.4 °F 71% 30.03 in 10.0 mi SE 25.3 mph 29.9 mph N/A   Clear
5:36 AM 46.4 °F 39.2 °F 37.4 °F 71% 30.04 in 10.0 mi SSE 18.4 mph 26.5 mph N/A   Clear
5:56 AM 46.4 °F 38.5 °F 37.4 °F 71% 30.05 in 10.0 mi SSE 21.9 mph 28.8 mph N/A   Clear
6:16 AM 46.4 °F 37.9 °F 37.4 °F 71% 30.04 in 10.0 mi SSE 25.3 mph 32.2 mph N/A   Clear
6:36 AM 46.4 °F 37.4 °F 37.4 °F 71% 30.04 in 10.0 mi SSE 28.8 mph 34.5 mph N/A   Clear
6:56 AM 48.2 °F - 37.4 °F 66% 30.03 in 10.0 mi SSE 31.1 mph 36.8 mph N/A   Clear
7:16 AM - - - N/A% 30.04 in 10.0 mi SSE 28.8 mph - N/A   Scattered Clouds
7:36 AM 46.4 °F 39.5 °F 37.4 °F 71% 30.07 in 10.0 mi South 17.3 mph - N/A   Scattered Clouds
7:56 AM 46.4 °F 39.8 °F 37.4 °F 71% 30.07 in 10.0 mi SSE 16.1 mph - N/A   Mostly Cloudy
8:16 AM 46.4 °F 40.7 °F 37.4 °F 71% 30.09 in 10.0 mi South 12.7 mph - N/A   Overcast
8:36 AM 48.2 °F - 37.4 °F 66% 30.09 in 10.0 mi SSE 16.1 mph - N/A   Overcast
8:56 AM 48.2 °F - 39.2 °F 71% 30.09 in 10.0 mi South 16.1 mph - N/A   Overcast
9:16 AM 46.4 °F 40.1 °F 39.2 °F 76% 30.08 in 10.0 mi SSE 15.0 mph - N/A   Overcast
9:36 AM 46.4 °F 38.7 °F 39.2 °F 76% 30.07 in 10.0 mi SSE 20.7 mph - N/A   Overcast
9:56 AM 46.4 °F 39.0 °F 37.4 °F 71% 30.06 in 10.0 mi SSE 19.6 mph - N/A   Overcast
10:16 AM 46.4 °F 38.7 °F 39.2 °F 76% 30.06 in 10.0 mi SSE 20.7 mph - N/A   Overcast
10:36 AM 48.2 °F - 39.2 °F 71% 30.07 in 10.0 mi South 18.4 mph - N/A   Scattered Clouds
10:56 AM 48.2 °F - 39.2 °F 71% 30.08 in 10.0 mi South 21.9 mph - N/A   Clear
11:16 AM 48.2 °F - 39.2 °F 71% 30.08 in 10.0 mi SSE 25.3 mph 32.2 mph N/A   Clear
11:36 AM 48.2 °F - 39.2 °F 71% 30.10 in 10.0 mi SSE 19.6 mph - N/A   Clear
11:56 AM 48.2 °F - 37.4 °F 66% 30.10 in 10.0 mi SSE 17.3 mph 24.2 mph N/A   Clear
12:16 PM 48.2 °F - 37.4 °F 66% 30.10 in 10.0 mi SSE 17.3 mph - N/A   Clear
12:36 PM 48.2 °F - 39.2 °F 71% 30.10 in 10.0 mi SSE 23.0 mph 28.8 mph N/A   Clear
12:56 PM 48.2 °F - 39.2 °F 71% 30.10 in 10.0 mi SSE 20.7 mph - N/A   Clear
1:16 PM 50.0 °F - 39.2 °F 66% 30.10 in 10.0 mi SSE 20.7 mph - N/A   Partly Cloudy
1:36 PM 50.0 °F - 39.2 °F 66% 30.09 in 10.0 mi SSE 27.6 mph 31.1 mph N/A   Clear
1:56 PM 50.0 °F - 39.2 °F 66% 30.09 in 10.0 mi SSE 26.5 mph 33.4 mph N/A   Clear
2:16 PM 48.2 °F - 39.2 °F 71% 30.10 in 10.0 mi SSE 23.0 mph 31.1 mph N/A   Clear
2:36 PM 50.0 °F - 39.2 °F 66% 30.08 in 10.0 mi SSE 27.6 mph 35.7 mph N/A   Clear
2:56 PM 50.0 °F - 39.2 °F 66% 30.08 in 10.0 mi SSE 24.2 mph 28.8 mph N/A   Clear
3:16 PM 48.2 °F - 39.2 °F 71% 30.09 in 10.0 mi SSE 21.9 mph 29.9 mph N/A   Clear
3:36 PM 50.0 °F - 39.2 °F 66% 30.07 in 10.0 mi SSE 23.0 mph 35.7 mph N/A   Clear
3:56 PM 48.2 °F - 39.2 °F 71% 30.08 in 10.0 mi SSE 21.9 mph 32.2 mph N/A   Clear
4:16 PM 48.2 °F - 39.2 °F 71% 30.07 in 10.0 mi SSE 27.6 mph 33.4 mph N/A   Clear
4:36 PM 48.2 °F - 37.4 °F 66% 30.08 in 10.0 mi SSE 16.1 mph 28.8 mph N/A   Clear
4:56 PM 50.0 °F - 39.2 °F 66% 30.06 in 10.0 mi SE 31.1 mph 35.7 mph N/A   Clear
5:16 PM 48.2 °F - 39.2 °F 71% 30.09 in 10.0 mi SSE 19.6 mph 27.6 mph N/A   Clear
5:36 PM 48.2 °F - 39.2 °F 71% 30.10 in 10.0 mi SSE 17.3 mph 25.3 mph N/A   Clear
5:56 PM 48.2 °F - 39.2 °F 71% 30.10 in 10.0 mi ESE 10.4 mph - N/A   Clear
6:16 PM 50.0 °F - 39.2 °F 66% 30.09 in 10.0 mi ESE 9.2 mph 24.2 mph N/A   Mostly Cloudy
6:36 PM 48.2 °F - 39.2 °F 71% 30.09 in 10.0 mi SE 11.5 mph - N/A   Overcast
6:56 PM 48.2 °F - 39.2 °F 71% 30.10 in 10.0 mi SE 8.1 mph - N/A   Overcast
7:16 PM 48.2 °F - 39.2 °F 71% 30.12 in 10.0 mi South 11.5 mph 16.1 mph N/A   Overcast
7:36 PM 48.2 °F - 39.2 °F 71% 30.12 in 10.0 mi South 17.3 mph 25.3 mph N/A   Overcast
7:56 PM 46.4 °F 38.3 °F 37.4 °F 71% 30.11 in 10.0 mi SE 23.0 mph 28.8 mph N/A   Mostly Cloudy
8:16 PM 46.4 °F 39.8 °F 37.4 °F 71% 30.11 in 10.0 mi ESE 16.1 mph 23.0 mph N/A   Clear
8:36 PM 48.2 °F - 37.4 °F 66% 30.08 in 10.0 mi ESE 25.3 mph 33.4 mph N/A   Clear
8:56 PM 46.4 °F 39.0 °F 37.4 °F 71% 30.09 in 10.0 mi SE 19.6 mph - N/A   Clear
9:16 PM 46.4 °F 39.0 °F 39.2 °F 76% 30.07 in 10.0 mi ESE 19.6 mph - N/A   Clear
9:36 PM 48.2 °F - 39.2 °F 71% 30.08 in 10.0 mi SE 15.0 mph - N/A   Clear
9:56 PM 48.2 °F - 39.2 °F 71% 30.08 in 10.0 mi SE 16.1 mph - N/A   Partly Cloudy
10:16 PM 48.2 °F - 39.2 °F 71% 30.08 in 10.0 mi SE 19.6 mph 26.5 mph N/A   Mostly Cloudy
10:36 PM 50.0 °F - 41.0 °F 71% 30.07 in 10.0 mi SE 23.0 mph 28.8 mph N/A   Mostly Cloudy
10:56 PM 48.2 °F - 39.2 °F 71% 30.07 in 10.0 mi ESE 23.0 mph 29.9 mph N/A   Partly Cloudy
11:16 PM 48.2 °F - 41.0 °F 76% 30.07 in 10.0 mi ESE 23.0 mph 28.8 mph N/A   Mostly Cloudy
11:36 PM 48.2 °F - 41.0 °F 76% 30.07 in 10.0 mi ESE 18.4 mph 24.2 mph N/A   Mostly Cloudy
11:56 PM 48.2 °F - 41.0 °F 76% 30.08 in 10.0 mi SE 15.0 mph 21.9 mph N/A   Scattered Clouds